Tracking 31027 objects as of 19-Jul-2025
HD Live streaming from Space Station
objects crossing your sky now

PERSEUS M2

Track PERSEUS M2 now!
10-day predictions
PERSEUS M2 is classified as:


NORAD ID: 40037
Int'l Code: 2014-033AD
Perigee: 585.1 km
Apogee: 601.1 km
Inclination: 98.0 °
Period: 96.4 minutes
Semi major axis: 6964 km
RCS: Unknown
Launch date: June 19, 2014
Source: Commonwealth of Independent States (former USSR) (CIS)
Launch site: Orenburg, Russia (OREN)

Uplink (MHz):
Downlink (MHz): 400.190/400.221*
Beacon (MHz):
Mode: 9600bps GFSK
Call sign: CQ
Status:

Your satellite tracking list
STARLINK-3674
Track 1 satellite(s)




NASA's NSSDC Master Catalog

Two Line Element Set (TLE):
1 40037U 14033AD  25199.82335276  .00001071  00000-0  10637-3 0  9996
2 40037  97.9561 139.8672 0011486 330.8902  29.1676 14.93844744601482
Source of the keplerian elements: AFSPC